Cloud_Cover
51 19 100 100 100 100 100 100 100 100 100 100 100 100 100 100 100 100 100 100 100 100
100 61 97 47 100 100 94 55 95 47 44 98 97 99 98 97 100 100 100 100 100 100
100 95 97 100 100 95 37 18 8 84 82 9 12 10 42 99 100 94 100 100 100 100
100 99 64 100 64 18 2 9 18 0 13 16 5 26 78 90 100 85 91 100 100 100
100 99 45 100 100 93 13 5 35 22 6 16 49 61 95 95 97 100 20 29 27 11
100 100 83 99 100 100 100 100 96 33 25 19 51 83 99 100 52 36 23 5 5 5
100 100 100 100 88 100 100 100 100 100 98 100 100 88 63 82 94 100 74 19 5 5
100 100 100 100 100 100 99 99 100 98 87 85 88 97 43 7 8 38 42 67 70 58
100 100 100 100 100 100 100 100 100 93 100 100 100 100 100 100 56 86 100 100 98 85
100 100 100 100 100 100 100 100 100 100 100 100 100 100 100 100 100 100 100 100 100 86
100 100 100 100 100 100 100 100 100 100 100 100 100 100 100 100 100 100 100 100 100 100
100 100 100 100 100 100 100 100 100 100 100 100 100 100 100 100 100 100 100 100 100 100
100 100 100 100 100 100 100 100 100 100 100 100 100 100 100 100 100 100 100 100 100 100
100 100 100 100 100 100 100 100 100 100 100 100 100 100 100 100 100 100 100 100 100 100